Simultaneous Nadir Overpasses (SNOs) Predictions

Prediction of SNOs between AQUA and NOAA-19 Satellite Orbit:

Table of predicted SNOs for the next 14.0 days since TLE Epoch: 7/15/2016
Index Date (AQUA) Time (AQUA) Lat,Lon (AQUA) SZA (AQUA ) Date (NOAA-19) Time (NOAA-19) Lat,Lon (NOAA-19) SZA (NOAA-19 ) Distance(km) Time Diff (sec)
1 07/16/2016 15:39:28 80.86, -94.04 61.96 07/16/2016 15:39:07 80.87, -94.07 61.98 1.15 21
2 07/16/2016 16:28:54 -80.85, 73.73 118.06 07/16/2016 16:30:02 -80.85, 73.89 118.10 2.81 68
3 07/18/2016 21:13:11 -80.87, 2.42 117.63 07/18/2016 21:13:06 -80.87, 2.35 117.62 1.25 5
4 07/21/2016 02:46:53 80.88, 98.87 62.82 07/21/2016 02:47:11 80.88, 98.81 62.81 1.16 18
5 07/23/2016 07:31:09 80.88, 27.79 63.26 07/23/2016 07:30:13 80.88, 27.76 63.29 0.55 56
6 07/23/2016 08:20:35 -80.86,-164.34 116.77 07/23/2016 08:21:10 -80.87,-164.45 116.77 2.05 35
7 07/25/2016 13:04:52 -80.89, 124.23 116.25 07/25/2016 13:04:13 -80.88, 124.32 116.24 1.86 39
8 07/25/2016 13:54:17 80.86, -67.70 63.69 07/25/2016 13:55:14 80.86, -67.71 63.68 0.87 57
9 07/27/2016 18:38:34 80.89,-139.20 64.26 07/27/2016 18:38:17 80.89,-139.18 64.26 0.76 17




NCC Satellite Simultaneous Nadir Overpasses (SNOs) Prediction Service
